Regional Weather Roundup
Issued by NWS Jackson, KY

Home | Current Version | Previous Version | Graphics & Text | Print | Product List | Glossary On
Versions: 1 2 3 4 5 6 7 8 9 10 11 12 13 14 15 16 17 18 19 20 21 22 23 24 25 26 27 28 29 30 31 32 33 34 35 36 37 38 39 40 41 42 43 44 45 46 47 48 49 50
000
ASUS43 KJKL 301119
RWRJKL

EAST KENTUCKY HOURLY WEATHER ROUNDUP
NATIONAL WEATHER SERVICE JACKSON KY
700 AM EDT THU OCT 30 2014

NOTE: "FAIR" INDICATES FEW OR NO CLOUDS BELOW 12,000 FEET WITH
NO SIGNIFICANT WEATHER AND/OR OBSTRUCTIONS TO VISIBILITY.

* THESE REPORTS ARE NOT UNDER NWS QUALITY CONTROL AND MAY NOT
  REPORT WEATHER SUCH AS PRECIPITATION AND FOG.

KYZ079-080-083-085-087-088-110-112-115-119-120-301200
...EASTERN KENTUCKY...

CITY           SKY/WX    TMP DP  RH WIND       PRES   REMARKS
JACKSON        CLEAR     40  32  73 CALM      30.12S
LONDON         CLEAR     39  34  82 N5        30.13R
SOMERSET*      CLEAR     36  34  93 CALM      30.15S
MONTICELLO*    CLEAR     33  33 100 CALM      30.16R
WILLIAMSBURG*  CLEAR     32  32 100 CALM      30.13R
MIDDLESBORO*   FOG       35  35 100 CALM      30.13S VSB 1/4
HARLAN APT*    CLOUDY    37  37 100 CALM      30.11S VSB<1/4
BLACK MTN*       N/A     36  32  87 N2          N/A
PIKEVILLE APT* CLEAR     39  34  81 CALM      30.11S
BIG SANDY*     SUNNY     37  35  92 CALM      30.12S
MOREHEAD APT*  CLOUDY    37  36  93 CALM      30.16S
ASHLAND*       CLOUDY    39  34  81 CALM      30.13R
$$

KYZ035-036-041-042-044-050-067-078-099-301200
...CENTRAL KENTUCKY...

CITY           SKY/WX    TMP DP  RH WIND       PRES   REMARKS
MT STERLING*   CLEAR     32  32 100 CALM      30.16R
FLEMING/MASON* CLOUDY    41  37  87 NW3       30.16R
DANVILLE*      CLEAR     34  32  93 CALM      30.15S
RICHMOND*      CLEAR     36  34  93 CALM      30.14R
LEXINGTON      CLEAR     38  32  79 CALM      30.14R
FRANKFORT      CLEAR     33  31  92 N3        30.15R
$$

KYZ091>093-OHZ055-061-077-WVZ005-015-034-035-042-301200
...SOUTHERN OHIO/WEST VIRGINIA...

CITY           SKY/WX    TMP DP  RH WIND       PRES   REMARKS
COVINGTON      PTCLDY    41  33  73 N3        30.15R
COLUMBUS       PTCLDY    42  34  73 CALM      30.13R
DAYTON         CLOUDY    43  36  76 NW5       30.16R
WILMINGTON     CLOUDY    42  34  73 NW7       30.14R
HUNTINGTON     CLOUDY    37  36  96 CALM      30.13S
CHARLESTON     CLOUDY    39  37  92 CALM      30.12S
PINEVILLE*     FOG       37  37 100 MISG      30.15S VSB 1/4
BECKLEY        CLEAR     34  31  88 CALM      30.08R
BLUEFIELD      CLEAR     37  32  82 W3        30.08R
$$

VAZ002-007-008-TNZ017-027-036-066-071-301200
...SOUTHWEST VIRGINIA/EAST TENNESSEE...

CITY           SKY/WX    TMP DP  RH WIND       PRES   REMARKS
WISE*          CLEAR     36  36 100 CALM      30.09S
JONESVILLE*    FOG       32  32 100 CALM      30.13S VSB 1/4
ABINGDON*      FOG       37  37 100 CALM      30.09R VSB<1/4
BRISTOL        FOG       41  41 100 N3        30.10S VSB 1/16
KNOXVILLE      PTCLDY    39  38  96 CALM      30.10S FOG
OAK RIDGE      FOG       41  40  96 CALM      30.13R VSB 1/4
CROSSVILLE     CLEAR     38  34  85 CALM      30.11S
NASHVILLE      CLEAR     40  37  89 CALM      30.16R
$$

...KEY TO REMARKS...
VSB - VISIBILITY IN MILES
WCI - WIND CHILL INDEX
HX  - HEAT INDEX

$$



USA.gov is the U.S. government's official web portal to all federal, state and local government web resources and services.